07-01-2023, 00:00:06,    235,    2.0,   10.1,   0.00,   0.00, 1004.8,   78.1, -999.0
07-01-2023, 00:00:16,    190,    3.3,   10.1,   0.00,   0.00, 1004.7,   78.1, -999.0
07-01-2023, 00:00:26,    121,    2.7,   10.1,   0.00,   0.00, 1004.8,   78.0, -999.0
07-01-2023, 00:00:36,    205,    2.4,   10.1,   0.00,   0.00, 1004.8,   78.0, -999.0
07-01-2023, 00:00:46,    136,    2.4,   10.1,   0.00,   0.00, 1004.8,   78.1, -999.0
07-01-2023, 00:00:56,    152,    3.7,   10.2,   0.00,   0.00, 1004.9,   78.1, -999.0
07-01-2023, 00:01:06,    141,    4.9,   10.2,   0.00,   0.00, 1004.7,   78.1, -999.0
07-01-2023, 00:01:16,    153,    7.1,   10.2,   0.00,   0.00, 1004.6,   77.9, -999.0
07-01-2023, 00:01:26,    214,    4.6,   10.2,   0.00,   0.00, 1004.7,   77.7, -999.0
07-01-2023, 00:01:36,    218,    3.2,   10.2,   0.00,   0.00, 1004.7,   77.8, -999.0
07-01-2023, 00:01:46,    162,    2.2,   10.2,   0.00,   0.00, 1004.7,   77.7, -999.0
07-01-2023, 00:01:56,    198,    3.1,   10.2,   0.00,   0.00, 1004.7,   77.7, -999.0
07-01-2023, 00:02:06,    157,    0.7,   10.2,   0.00,   0.00, 1004.7,   77.6, -999.0
07-01-2023, 00:02:15,    171,    0.9,   10.2,   0.00,   0.00, 1004.7,   77.7, -999.0
07-01-2023, 00:02:26,    204,    0.8,   10.1,   0.00,   0.00, 1004.7,   77.8, -999.0
07-01-2023, 00:02:36,    200,    0.5,   10.1,   0.00,   0.00, 1004.7,   77.8, -999.0
07-01-2023, 00:02:45,    205,    1.1,   10.2,   0.00,   0.00, 1004.7,   77.8, -999.0
07-01-2023, 00:02:55,    203,    0.2,   10.1,   0.00,   0.00, 1004.7,   77.7, -999.0
07-01-2023, 00:03:06,    168,    1.0,   10.1,   0.00,   0.00, 1004.7,   77.8, -999.0
07-01-2023, 00:03:16,    163,    2.8,   10.2,   0.00,   0.00, 1004.7,   78.0, -999.0
07-01-2023, 00:03:25,    215,    0.8,   10.2,   0.00,   0.00, 1004.7,   77.9, -999.0
07-01-2023, 00:03:35,    184,    0.8,   10.1,   0.00,   0.00, 1004.7,   78.0, -999.0
07-01-2023, 00:03:46,    260,    3.7,   10.1,   0.00,   0.00, 1004.7,   78.0, -999.0
07-01-2023, 00:03:55,    177,    0.9,   10.2,   0.00,   0.00, 1004.7,   78.0, -999.0
07-01-2023, 00:04:05,    227,    0.7,   10.2,   0.00,   0.00, 1004.7,   78.0, -999.0
07-01-2023, 00:04:16,    152,    2.1,   10.2,   0.00,   0.00, 1004.7,   77.9, -999.0
07-01-2023, 00:04:25,    213,    2.1,   10.2,   0.00,   0.00, 1004.7,   78.0, -999.0
07-01-2023, 00:04:35,    193,    5.2,   10.1,   0.00,   0.00, 1004.7,   78.0, -999.0
07-01-2023, 00:04:45,    190,    2.6,   10.1,   0.00,   0.00, 1004.6,   77.9, -999.0
07-01-2023, 00:04:56,    191,    3.5,   10.1,   0.00,   0.00, 1004.7,   77.9, -999.0
07-01-2023, 00:05:05,    179,    1.4,   10.1,   0.00,   0.00, 1004.7,   78.0, -999.0
07-01-2023, 00:05:15,    211,    2.7,   10.1,   0.00,   0.00, 1004.7,   78.0, -999.0
07-01-2023, 00:05:25,    197,    1.5,   10.1,   0.00,   0.00, 1004.7,   78.1, -999.0
07-01-2023, 00:05:35,    175,    1.3,   10.1,   0.00,   0.00, 1004.7,   78.1, -999.0
07-01-2023, 00:05:45,    172,    3.4,   10.1,   0.00,   0.00, 1004.6,   78.2, -999.0
07-01-2023, 00:05:55,    198,    3.0,   10.1,   0.00,   0.00, 1004.6,   78.3, -999.0
07-01-2023, 00:06:05,    131,    3.7,   10.1,   0.00,   0.00, 1004.6,   78.2, -999.0
07-01-2023, 00:06:15,    210,    1.4,   10.2,   0.00,   0.00, 1004.7,   78.2, -999.0
07-01-2023, 00:06:25,    177,    5.1,   10.2,   0.00,   0.00, 1004.7,   78.3, -999.0
07-01-2023, 00:06:35,    146,    4.5,   10.2,   0.00,   0.00, 1004.7,   78.2, -999.0
07-01-2023, 00:06:45,    136,    4.5,   10.2,   0.00,   0.00, 1004.7,   78.0, -999.0
07-01-2023, 00:06:55,    235,    3.3,   10.2,   0.00,   0.00, 1004.7,   78.0, -999.0
07-01-2023, 00:07:05,    179,    1.6,   10.1,   0.00,   0.00, 1004.6,   77.9, -999.0
07-01-2023, 00:07:15,    130,    1.3,   10.1,   0.00,   0.00, 1004.6,   77.9, -999.0
07-01-2023, 00:07:25,    230,    1.7,   10.2,   0.00,   0.00, 1004.7,   77.9, -999.0
07-01-2023, 00:07:35,    213,    4.2,   10.2,   0.00,   0.00, 1004.7,   78.0, -999.0
07-01-2023, 00:07:45,    188,    2.3,   10.2,   0.00,   0.00, 1004.7,   78.0, -999.0
07-01-2023, 00:07:55,     96,    3.9,   10.2,   0.00,   0.00, 1004.7,   78.0, -999.0
07-01-2023, 00:08:05,    194,    2.6,   10.2,   0.00,   0.00, 1004.7,   78.0, -999.0
07-01-2023, 00:08:15,    160,    3.4,   10.2,   0.00,   0.00, 1004.7,   77.9, -999.0
07-01-2023, 00:08:25,    154,    3.2,   10.2,   0.00,   0.00, 1004.7,   78.0, -999.0
07-01-2023, 00:08:35,    192,    4.5,   10.2,   0.00,   0.00, 1004.7,   77.8, -999.0
07-01-2023, 00:08:45,    195,    5.8,   10.2,   0.00,   0.00, 1004.6,   77.8, -999.0
07-01-2023, 00:08:55,    233,    4.3,   10.2,   0.00,   0.00, 1004.6,   77.7, -999.0
07-01-2023, 00:09:05,    188,    1.7,   10.1,   0.00,   0.00, 1004.5,   77.6, -999.0
07-01-2023, 00:09:15,    177,    2.0,   10.2,   0.00,   0.00, 1004.6,   77.6, -999.0
07-01-2023, 00:09:25,    156,    1.7,   10.2,   0.00,   0.00, 1004.6,   77.7, -999.0
07-01-2023, 00:09:35,    156,    1.8,   10.2,   0.00,   0.00, 1004.6,   77.8, -999.0
07-01-2023, 00:09:45,    196,    3.5,   10.2,   0.00,   0.00, 1004.6,   77.8, -999.0
07-01-2023, 00:09:54,    187,    2.3,   10.2,   0.00,   0.00, 1004.5,   77.8, -999.0
07-01-2023, 00:10:05,    216,    1.3,   10.2,   0.00,   0.00, 1004.5,   77.7, -999.0
07-01-2023, 00:10:15,    225,    3.4,   10.2,   0.00,   0.00, 1004.6,   77.8, -999.0
07-01-2023, 00:10:25,    243,    2.1,   10.2,   0.00,   0.00, 1004.6,   77.7, -999.0
07-01-2023, 00:10:34,    166,    3.3,   10.2,   0.00,   0.00, 1004.6,   77.8, -999.0
07-01-2023, 00:10:45,    173,    2.0,   10.2,   0.00,   0.00, 1004.6,   77.7, -999.0
07-01-2023, 00:10:55,    192,    2.9,   10.2,   0.00,   0.00, 1004.6,   77.8, -999.0
07-01-2023, 00:11:04,    235,    2.4,   10.2,   0.00,   0.00, 1004.6,   77.9, -999.0
07-01-2023, 00:11:15,    176,    3.1,   10.2,   0.00,   0.00, 1004.5,   77.8, -999.0
07-01-2023, 00:11:25,    151,    2.0,   10.2,   0.00,   0.00, 1004.5,   77.7, -999.0
07-01-2023, 00:11:34,    221,    0.8,   10.2,   0.00,   0.00, 1004.5,   77.6, -999.0
07-01-2023, 00:11:44,    200,    2.6,   10.2,   0.00,   0.00, 1004.5,   77.6, -999.0
07-01-2023, 00:11:55,    199,    2.9,   10.1,   0.00,   0.00, 1004.6,   77.6, -999.0
07-01-2023, 00:12:05,    217,    3.3,   10.2,   0.00,   0.00, 1004.5,   77.5, -999.0
07-01-2023, 00:12:14,    183,    3.5,   10.2,   0.00,   0.00, 1004.5,   77.6, -999.0
07-01-2023, 00:12:24,    207,    1.2,   10.2,   0.00,   0.00, 1004.5,   77.4, -999.0
07-01-2023, 00:12:35,    141,    0.5,   10.1,   0.00,   0.00, 1004.4,   77.4, -999.0
07-01-2023, 00:12:44,    223,    0.3,   10.2,   0.00,   0.00, 1004.4,   77.5, -999.0
07-01-2023, 00:12:54,    235,    0.3,   10.2,   0.00,   0.00, 1004.5,   77.7, -999.0
07-01-2023, 00:13:04,    204,    3.0,   10.2,   0.00,   0.00, 1004.6,   77.8, -999.0
07-01-2023, 00:13:14,    209,    2.4,   10.2,   0.00,   0.00, 1004.6,   77.8, -999.0
07-01-2023, 00:13:24,    166,    1.0,   10.2,   0.00,   0.00, 1004.5,   77.9, -999.0
07-01-2023, 00:13:34,    114,    2.9,   10.2,   0.00,   0.00, 1004.5,   77.9, -999.0
07-01-2023, 00:13:44,    212,    1.3,   10.2,   0.00,   0.00, 1004.5,   77.9, -999.0
07-01-2023, 00:13:54,    195,    5.5,   10.2,   0.00,   0.00, 1004.5,   78.0, -999.0
07-01-2023, 00:14:04,    203,    1.1,   10.2,   0.00,   0.00, 1004.6,   77.9, -999.0
07-01-2023, 00:14:14,    170,    2.6,   10.1,   0.00,   0.00, 1004.5,   77.9, -999.0
07-01-2023, 00:14:24,    151,    1.4,   10.2,   0.00,   0.00, 1004.5,   77.7, -999.0
07-01-2023, 00:14:34,    235,    1.1,   10.2,   0.00,   0.00, 1004.5,   77.8, -999.0
07-01-2023, 00:14:44,    234,    0.1,   10.1,   0.00,   0.00, 1004.4,   77.5, -999.0
07-01-2023, 00:14:54,     98,    3.3,   10.0,   0.00,   0.00, 1004.4,   77.8, -999.0
07-01-2023, 00:15:04,    159,    4.1,   10.1,   0.00,   0.00, 1004.4,   77.8, -999.0
07-01-2023, 00:15:14,    187,    2.0,   10.2,   0.00,   0.00, 1004.5,   77.8, -999.0
07-01-2023, 00:15:24,    144,    1.1,   10.2,   0.00,   0.00, 1004.4,   77.9, -999.0
07-01-2023, 00:15:34,    193,    4.0,   10.2,   0.00,   0.00, 1004.4,   77.8, -999.0
07-01-2023, 00:15:44,    198,    1.3,   10.2,   0.00,   0.00, 1004.4,   77.9, -999.0
07-01-2023, 00:15:54,    209,    2.1,   10.2,   0.00,   0.00, 1004.5,   77.9, -999.0
07-01-2023, 00:16:04,    231,    5.5,   10.2,   0.00,   0.00, 1004.5,   77.9, -999.0
07-01-2023, 00:16:14,    175,    3.3,   10.2,   0.00,   0.00, 1004.4,   77.8, -999.0
07-01-2023, 00:16:24,    151,    0.7,   10.2,   0.00,   0.00, 1004.3,   77.6, -999.0
07-01-2023, 00:16:34,    172,    1.4,   10.2,   0.00,   0.00, 1004.4,   77.8, -999.0
07-01-2023, 00:16:44,    139,    3.2,   10.2,   0.00,   0.00, 1004.3,   77.9, -999.0
07-01-2023, 00:16:54,    204,    1.7,   10.2,   0.00,   0.00, 1004.4,   77.9, -999.0
07-01-2023, 00:17:04,    181,    1.3,   10.1,   0.00,   0.00, 1004.5,   78.0, -999.0
07-01-2023, 00:17:14,    229,    2.3,   10.2,   0.00,   0.00, 1004.5,   78.0, -999.0
07-01-2023, 00:17:24,    181,    4.1,   10.2,   0.00,   0.00, 1004.3,   78.0, -999.0
07-01-2023, 00:17:34,    182,    4.9,   10.2,   0.00,   0.00, 1004.4,   78.0, -999.0
07-01-2023, 00:17:44,    175,    4.8,   10.2,   0.00,   0.00, 1004.3,   77.9, -999.0
07-01-2023, 00:17:54,    176,    3.7,   10.2,   0.00,   0.00, 1004.3,   77.8, -999.0
07-01-2023, 00:18:04,    216,    2.9,   10.1,   0.00,   0.00, 1004.3,   77.8, -999.0
07-01-2023, 00:18:14,    243,    7.7,   10.2,   0.00,   0.00, 1004.3,   77.8, -999.0
07-01-2023, 00:18:24,    207,    4.4,   10.1,   0.00,   0.00, 1004.3,   77.6, -999.0
07-01-2023, 00:18:34,    154,    2.6,   10.2,   0.00,   0.00, 1004.3,   77.7, -999.0
07-01-2023, 00:18:43,    142,    3.1,   10.2,   0.00,   0.00, 1004.3,   77.7, -999.0
07-01-2023, 00:18:54,    217,    4.1,   10.2,   0.00,   0.00, 1004.4,   77.6, -999.0
07-01-2023, 00:19:04,    172,    1.9,   10.2,   0.00,   0.00, 1004.3,   77.5, -999.0
07-01-2023, 00:19:13,    205,    1.4,   10.2,   0.00,   0.00, 1004.3,   77.6, -999.0
07-01-2023, 00:19:23,    214,    4.8,   10.2,   0.00,   0.00, 1004.4,   77.6, -999.0
07-01-2023, 00:19:34,    129,    4.2,   10.2,   0.00,   0.00, 1004.3,   77.6, -999.0
07-01-2023, 00:19:44,    106,    4.1,   10.2,   0.00,   0.00, 1004.3,   77.5, -999.0
07-01-2023, 00:19:53,    266,    3.3,   10.2,   0.00,   0.00, 1004.3,   77.6, -999.0
07-01-2023, 00:20:03,    221,    3.6,   10.2,   0.00,   0.00, 1004.3,   77.5, -999.0
07-01-2023, 00:20:14,    223,    4.4,   10.2,   0.00,   0.00, 1004.3,   77.5, -999.0
07-01-2023, 00:20:23,    140,    2.7,   10.2,   0.00,   0.00, 1004.3,   77.4, -999.0
07-01-2023, 00:20:33,    170,    2.9,   10.3,   0.00,   0.00, 1004.3,   77.4, -999.0
07-01-2023, 00:20:43,    139,    3.1,   10.2,   0.00,   0.00, 1004.3,   77.4, -999.0
07-01-2023, 00:20:53,    201,    1.2,   10.1,   0.00,   0.00, 1004.3,   77.4, -999.0
07-01-2023, 00:21:03,    188,    2.5,   10.2,   0.00,   0.00, 1004.3,   77.4, -999.0
07-01-2023, 00:21:13,    131,    1.5,   10.3,   0.00,   0.00, 1004.3,   77.4, -999.0
07-01-2023, 00:21:24,    151,    4.8,   10.2,   0.00,   0.00, 1004.3,   77.5, -999.0
07-01-2023, 00:21:33,    227,    2.5,   10.2,   0.00,   0.00, 1004.3,   77.6, -999.0
07-01-2023, 00:21:43,    170,    3.2,   10.2,   0.00,   0.00, 1004.3,   77.5, -999.0
07-01-2023, 00:21:53,    139,    4.3,   10.2,   0.00,   0.00, 1004.3,   77.5, -999.0
07-01-2023, 00:22:03,    225,    2.0,   10.2,   0.00,   0.00, 1004.3,   77.6, -999.0
07-01-2023, 00:22:13,    222,    1.0,   10.2,   0.00,   0.00, 1004.3,   77.5, -999.0
07-01-2023, 00:22:23,    207,    1.3,   10.2,   0.00,   0.00, 1004.3,   77.7, -999.0
07-01-2023, 00:22:33,    197,    0.5,   10.1,   0.00,   0.00, 1004.3,   77.7, -999.0
07-01-2023, 00:22:43,    120,    0.5,   10.2,   0.00,   0.00, 1004.3,   77.8, -999.0
07-01-2023, 00:22:53,    170,    0.6,   10.1,   0.00,   0.00, 1004.2,   77.8, -999.0
07-01-2023, 00:23:03,    103,    0.1,   10.1,   0.00,   0.00, 1004.2,   77.7, -999.0
07-01-2023, 00:23:13,    202,    1.7,   10.2,   0.00,   0.00, 1004.3,   78.0, -999.0
07-01-2023, 00:23:23,    225,    3.6,   10.1,   0.00,   0.00, 1004.3,   77.9, -999.0
07-01-2023, 00:23:33,    175,    3.3,   10.1,   0.00,   0.00, 1004.3,   78.0, -999.0
07-01-2023, 00:23:43,    158,    4.6,   10.1,   0.00,   0.00, 1004.3,   77.9, -999.0
07-01-2023, 00:23:53,    115,    3.9,   10.1,   0.00,   0.00, 1004.3,   77.8, -999.0
07-01-2023, 00:24:03,    197,    1.7,   10.2,   0.00,   0.00, 1004.3,   77.8, -999.0
07-01-2023, 00:24:13,    178,    3.9,   10.2,   0.00,   0.00, 1004.3,   77.8, -999.0
07-01-2023, 00:24:23,    191,    3.3,   10.1,   0.00,   0.00, 1004.3,   77.7, -999.0
07-01-2023, 00:24:33,    186,    2.1,   10.2,   0.00,   0.00, 1004.3,   77.7, -999.0
07-01-2023, 00:24:43,    207,    3.5,   10.2,   0.00,   0.00, 1004.3,   77.6, -999.0
07-01-2023, 00:24:53,    194,    4.4,   10.2,   0.00,   0.00, 1004.3,   77.5, -999.0
07-01-2023, 00:25:03,    226,    2.3,   10.2,   0.00,   0.00, 1004.3,   77.5, -999.0
07-01-2023, 00:25:13,    209,    4.7,   10.2,   0.00,   0.00, 1004.3,   77.5, -999.0
07-01-2023, 00:25:23,    131,    2.0,   10.2,   0.00,   0.00, 1004.2,   77.4, -999.0
07-01-2023, 00:25:33,    222,    1.9,   10.2,   0.00,   0.00, 1004.3,   77.5, -999.0
07-01-2023, 00:25:43,    127,    1.1,   10.2,   0.00,   0.00, 1004.2,   77.4, -999.0
07-01-2023, 00:25:53,    188,    0.9,   10.2,   0.00,   0.00, 1004.3,   77.6, -999.0
07-01-2023, 00:26:03,    195,    1.9,   10.2,   0.00,   0.00, 1004.3,   77.5, -999.0
07-01-2023, 00:26:13,    177,    3.5,   10.2,   0.00,   0.00, 1004.3,   77.5, -999.0
07-01-2023, 00:26:22,    155,    3.1,   10.2,   0.00,   0.00, 1004.3,   77.6, -999.0
07-01-2023, 00:26:33,    185,    2.6,   10.2,   0.00,   0.00, 1004.3,   77.6, -999.0
07-01-2023, 00:26:43,    188,    3.2,   10.2,   0.00,   0.00, 1004.3,   77.7, -999.0
07-01-2023, 00:26:53,    173,    1.1,   10.2,   0.00,   0.00, 1004.3,   77.6, -999.0
07-01-2023, 00:27:02,    149,    1.2,   10.2,   0.00,   0.00, 1004.3,   77.7, -999.0
07-01-2023, 00:27:13,    202,    2.2,   10.2,   0.00,   0.00, 1004.2,   77.8, -999.0
07-01-2023, 00:27:23,    218,    6.4,   10.2,   0.00,   0.00, 1004.2,   77.8, -999.0
07-01-2023, 00:27:32,    211,    5.0,   10.2,   0.00,   0.00, 1004.2,   77.7, -999.0
07-01-2023, 00:27:42,    114,    2.6,   10.2,   0.00,   0.00, 1004.2,   77.6, -999.0
07-01-2023, 00:27:53,    211,    3.9,   10.1,   0.00,   0.00, 1004.2,   77.7, -999.0
07-01-2023, 00:28:02,    167,    4.1,   10.2,   0.00,   0.00, 1004.2,   77.7, -999.0
07-01-2023, 00:28:12,    216,    2.8,   10.2,   0.00,   0.00, 1004.3,   77.7, -999.0
07-01-2023, 00:28:23,    215,    2.8,   10.2,   0.00,   0.00, 1004.3,   77.7, -999.0
07-01-2023, 00:28:33,    205,    1.7,   10.1,   0.00,   0.00, 1004.3,   77.6, -999.0
07-01-2023, 00:28:42,    207,    0.5,   10.1,   0.00,   0.00, 1004.2,   77.6, -999.0
07-01-2023, 00:28:52,    198,    1.6,   10.1,   0.00,   0.00, 1004.3,   77.7, -999.0
07-01-2023, 00:29:03,    195,    2.8,   10.2,   0.00,   0.00, 1004.2,   77.8, -999.0
07-01-2023, 00:29:12,    187,    1.1,   10.2,   0.00,   0.00, 1004.3,   77.8, -999.0
07-01-2023, 00:29:22,    138,    3.4,   10.1,   0.00,   0.00, 1004.2,   77.9, -999.0
07-01-2023, 00:29:32,    209,    1.0,   10.2,   0.00,   0.00, 1004.2,   77.8, -999.0
07-01-2023, 00:29:42,    206,    0.1,   10.1,   0.00,   0.00, 1004.1,   77.6, -999.0
07-01-2023, 00:29:52,    176,    0.1,   10.1,   0.00,   0.00, 1004.1,   77.7, -999.0
07-01-2023, 00:30:02,    133,    1.5,   10.2,   0.00,   0.00, 1004.2,   77.9, -999.0
07-01-2023, 00:30:12,    198,    1.2,   10.2,   0.00,   0.00, 1004.2,   77.9, -999.0
07-01-2023, 00:30:22,    206,    3.2,   10.1,   0.00,   0.00, 1004.2,   78.0, -999.0
07-01-2023, 00:30:32,    147,    1.6,   10.1,   0.00,   0.00, 1004.2,   78.0, -999.0
07-01-2023, 00:30:42,    162,    3.9,   10.1,   0.00,   0.00, 1004.2,   78.1, -999.0
07-01-2023, 00:30:52,    226,    3.0,   10.2,   0.00,   0.00, 1004.2,   78.1, -999.0
07-01-2023, 00:31:02,    139,    2.9,   10.1,   0.00,   0.00, 1004.1,   78.0, -999.0
07-01-2023, 00:31:12,    122,    2.7,   10.1,   0.00,   0.00, 1004.2,   78.0, -999.0
07-01-2023, 00:31:22,    193,    4.5,   10.1,   0.00,   0.00, 1004.2,   78.0, -999.0
07-01-2023, 00:31:32,    158,    2.6,   10.2,   0.00,   0.00, 1004.1,   78.0, -999.0
07-01-2023, 00:31:42,    217,    2.6,   10.2,   0.00,   0.00, 1004.2,   78.0, -999.0
07-01-2023, 00:31:52,    178,    2.6,   10.2,   0.00,   0.00, 1004.2,   78.0, -999.0
07-01-2023, 00:32:02,    194,    1.6,   10.2,   0.00,   0.00, 1004.1,   77.9, -999.0
07-01-2023, 00:32:12,    117,    2.2,   10.1,   0.00,   0.00, 1004.1,   78.0, -999.0
07-01-2023, 00:32:22,    160,    2.4,   10.1,   0.00,   0.00, 1004.1,   78.0, -999.0
07-01-2023, 00:32:32,    148,    2.5,   10.1,   0.00,   0.00, 1004.1,   78.0, -999.0
07-01-2023, 00:32:42,    197,    1.1,   10.1,   0.00,   0.00, 1004.1,   77.9, -999.0
07-01-2023, 00:32:52,    219,    3.3,   10.2,   0.00,   0.00, 1004.1,   78.0, -999.0
07-01-2023, 00:33:02,    138,    2.0,   10.2,   0.00,   0.00, 1004.1,   78.0, -999.0
07-01-2023, 00:33:12,    166,    2.8,   10.2,   0.00,   0.00, 1004.1,   78.0, -999.0
07-01-2023, 00:33:22,    124,    2.0,   10.2,   0.00,   0.00, 1004.2,   78.1, -999.0
07-01-2023, 00:33:32,    129,    3.5,   10.2,   0.00,   0.00, 1004.1,   78.1, -999.0
07-01-2023, 00:33:42,    160,    3.0,   10.1,   0.00,   0.00, 1004.1,   78.1, -999.0
07-01-2023, 00:33:52,    158,    0.4,   10.1,   0.00,   0.00, 1004.0,   78.0, -999.0
07-01-2023, 00:34:02,    222,    0.4,   10.1,   0.00,   0.00, 1004.1,   78.0, -999.0
07-01-2023, 00:34:12,    159,    2.0,   10.1,   0.00,   0.00, 1004.1,   78.2, -999.0
07-01-2023, 00:34:22,    159,    2.7,   10.1,   0.00,   0.00, 1004.1,   78.3, -999.0
07-01-2023, 00:34:32,    169,    4.9,   10.1,   0.00,   0.00, 1004.1,   78.2, -999.0
07-01-2023, 00:34:41,    180,    1.1,   10.1,   0.00,   0.00, 1004.1,   78.1, -999.0
07-01-2023, 00:34:52,    110,    3.6,   10.2,   0.00,   0.00, 1004.1,   78.2, -999.0
07-01-2023, 00:35:02,    161,    2.0,   10.1,   0.00,   0.00, 1004.1,   78.3, -999.0
07-01-2023, 00:35:11,    212,    4.0,   10.1,   0.00,   0.00, 1004.1,   78.2, -999.0
07-01-2023, 00:35:22,    197,    3.6,   10.1,   0.00,   0.00, 1004.1,   78.2, -999.0
07-01-2023, 00:35:32,    213,    4.7,   10.2,   0.00,   0.00, 1004.1,   78.2, -999.0
07-01-2023, 00:35:42,    199,    4.2,   10.2,   0.00,   0.00, 1004.1,   78.2, -999.0
07-01-2023, 00:35:51,    179,    1.4,   10.1,   0.00,   0.00, 1004.0,   78.2, -999.0
07-01-2023, 00:36:02,    168,    0.9,   10.1,   0.00,   0.00, 1004.0,   78.2, -999.0
07-01-2023, 00:36:12,    123,    2.5,   10.1,   0.00,   0.00, 1004.1,   78.4, -999.0
07-01-2023, 00:36:21,    163,    1.9,   10.0,   0.00,   0.00, 1004.0,   78.4, -999.0
07-01-2023, 00:36:31,    150,    3.9,   10.1,   0.00,   0.00, 1004.0,   78.4, -999.0
07-01-2023, 00:36:42,    168,    4.2,   10.1,   0.00,   0.00, 1004.0,   78.4, -999.0
07-01-2023, 00:36:51,    237,    2.6,   10.1,   0.00,   0.00, 1004.0,   78.2, -999.0
07-01-2023, 00:37:01,    215,    4.0,   10.1,   0.00,   0.00, 1004.1,   78.2, -999.0
07-01-2023, 00:37:11,    172,    3.6,   10.1,   0.00,   0.00, 1004.1,   78.2, -999.0
07-01-2023, 00:37:21,    212,    1.8,   10.1,   0.00,   0.00, 1004.0,   78.3, -999.0
07-01-2023, 00:37:31,    208,    1.3,   10.0,   0.00,   0.00, 1004.0,   78.2, -999.0
07-01-2023, 00:37:41,    165,    3.4,   10.1,   0.00,   0.00, 1004.0,   78.3, -999.0
07-01-2023, 00:37:51,    163,    2.4,   10.1,   0.00,   0.00, 1004.0,   78.3, -999.0
07-01-2023, 00:38:01,    123,    1.4,   10.1,   0.00,   0.00, 1004.0,   78.3, -999.0
07-01-2023, 00:38:11,    200,    1.3,   10.1,   0.00,   0.00, 1003.9,   78.3, -999.0
07-01-2023, 00:38:21,    221,    1.1,   10.1,   0.00,   0.00, 1004.0,   78.4, -999.0
07-01-2023, 00:38:31,    169,    0.9,   10.1,   0.00,   0.00, 1003.9,   78.4, -999.0
07-01-2023, 00:38:41,    128,    1.3,   10.1,   0.00,   0.00, 1003.9,   78.5, -999.0
07-01-2023, 00:38:53,    135,    0.1,   10.0,   0.00,   0.00, 1003.8,   78.3, -999.0
07-01-2023, 00:39:01,    147,    3.3,   10.1,   0.00,   0.00, 1004.0,   78.7, -999.0
07-01-2023, 00:39:11,    182,    0.7,   10.0,   0.00,   0.00, 1003.9,   78.7, -999.0
07-01-2023, 00:39:21,    147,    1.8,   10.1,   0.00,   0.00, 1004.0,   78.8, -999.0
07-01-2023, 00:39:31,    166,    3.0,   10.1,   0.00,   0.00, 1004.0,   78.9, -999.0
07-01-2023, 00:39:41,    169,    0.5,   10.0,   0.00,   0.00, 1003.9,   78.7, -999.0
07-01-2023, 00:39:51,    145,    1.8,   10.0,   0.00,   0.00, 1003.9,   78.8, -999.0
07-01-2023, 00:40:01,    209,    2.5,   10.1,   0.00,   0.00, 1003.9,   78.9, -999.0
07-01-2023, 00:40:11,    180,    2.1,   10.1,   0.00,   0.00, 1003.9,   78.9, -999.0
07-01-2023, 00:40:21,    121,    2.9,   10.1,   0.00,   0.00, 1003.9,   78.9, -999.0
07-01-2023, 00:40:31,    171,    1.3,   10.0,   0.00,   0.00, 1003.9,   78.8, -999.0
07-01-2023, 00:40:41,    253,    1.1,   10.1,   0.00,   0.00, 1004.0,   78.8, -999.0
07-01-2023, 00:40:51,    182,    3.8,   10.0,   0.00,   0.00, 1003.9,   78.8, -999.0
07-01-2023, 00:41:01,    131,    4.8,   10.0,   0.00,   0.00, 1003.9,   78.8, -999.0
07-01-2023, 00:41:11,    175,    1.2,   10.0,   0.00,   0.00, 1003.9,   78.8, -999.0
07-01-2023, 00:41:21,    220,    1.1,   10.0,   0.00,   0.00, 1003.9,   78.9, -999.0
07-01-2023, 00:41:31,    176,    2.5,   10.1,   0.00,   0.00, 1003.9,   78.9, -999.0
07-01-2023, 00:41:41,    193,    1.5,   10.1,   0.00,   0.00, 1004.0,   78.8, -999.0
07-01-2023, 00:41:51,    168,    0.6,   10.0,   0.00,   0.00, 1003.9,   78.9, -999.0
07-01-2023, 00:42:01,    210,    0.9,   10.1,   0.00,   0.00, 1003.9,   79.0, -999.0
07-01-2023, 00:42:11,    137,    0.7,   10.0,   0.00,   0.00, 1003.9,   78.9, -999.0
07-01-2023, 00:42:21,    128,    3.1,   10.0,   0.00,   0.00, 1003.9,   79.0, -999.0
07-01-2023, 00:42:31,    207,    2.5,   10.1,   0.00,   0.00, 1003.9,   79.0, -999.0
07-01-2023, 00:42:41,    213,    0.9,   10.1,   0.00,   0.00, 1003.9,   78.8, -999.0
07-01-2023, 00:42:50,    157,    2.1,    9.9,   0.00,   0.00, 1003.9,   78.9, -999.0
07-01-2023, 00:43:01,    171,    2.8,   10.0,   0.00,   0.00, 1003.9,   78.9, -999.0
07-01-2023, 00:43:11,    173,    2.3,   10.1,   0.00,   0.00, 1003.9,   79.0, -999.0
07-01-2023, 00:43:21,    119,    2.8,   10.1,   0.00,   0.00, 1003.9,   78.9, -999.0
07-01-2023, 00:43:30,    107,    1.8,   10.1,   0.00,   0.00, 1003.9,   79.0, -999.0
07-01-2023, 00:43:41,    164,    3.7,   10.0,   0.00,   0.00, 1003.9,   79.0, -999.0
07-01-2023, 00:43:51,    175,    2.3,   10.1,   0.00,   0.00, 1003.9,   79.0, -999.0
07-01-2023, 00:44:00,    188,    2.6,   10.0,   0.00,   0.00, 1003.9,   79.1, -999.0
07-01-2023, 00:44:11,    206,    0.3,   10.0,   0.00,   0.00, 1003.8,   79.2, -999.0
07-01-2023, 00:44:21,    139,    2.8,   10.0,   0.00,   0.00, 1003.9,   79.2, -999.0
07-01-2023, 00:44:30,    214,    2.8,   10.0,   0.00,   0.00, 1003.8,   79.2, -999.0
07-01-2023, 00:44:40,    162,    4.9,   10.0,   0.00,   0.00, 1003.8,   79.0, -999.0
07-01-2023, 00:44:51,    142,    2.8,   10.0,   0.00,   0.00, 1003.8,   78.9, -999.0
07-01-2023, 00:45:00,    218,    3.9,   10.0,   0.00,   0.00, 1003.9,   78.7, -999.0
07-01-2023, 00:45:10,    143,    2.9,   10.1,   0.00,   0.00, 1003.9,   78.9, -999.0
07-01-2023, 00:45:20,    160,    0.7,   10.0,   0.00,   0.00, 1003.9,   78.8, -999.0
07-01-2023, 00:45:31,    212,    1.2,   10.1,   0.00,   0.00, 1003.9,   78.9, -999.0
07-01-2023, 00:45:40,    227,    2.0,   10.0,   0.00,   0.00, 1003.9,   78.9, -999.0
07-01-2023, 00:45:50,    138,    2.9,   10.0,   0.00,   0.00, 1003.9,   78.9, -999.0
07-01-2023, 00:46:00,    162,    1.8,   10.0,   0.00,   0.00, 1003.9,   79.0, -999.0
07-01-2023, 00:46:10,    140,    0.8,   10.0,   0.00,   0.00, 1003.9,   79.1, -999.0
07-01-2023, 00:46:20,    173,    1.4,   10.0,   0.00,   0.00, 1003.9,   79.2, -999.0
07-01-2023, 00:46:30,    214,    2.8,   10.0,   0.00,   0.00, 1003.9,   79.2, -999.0
07-01-2023, 00:46:40,    175,    1.7,   10.0,   0.00,   0.00, 1003.9,   79.2, -999.0
07-01-2023, 00:46:50,    182,    0.1,    9.9,   0.00,   0.00, 1003.8,   79.0, -999.0